Simultaneous Nadir Overpasses (SNOs) Predictions

Prediction of SNOs between METOP-B and TERRA Satellite Orbit:

Table of predicted SNOs for the next 14.0 days since TLE Epoch: 3/3/2018
Index Date (METOP-B) Time (METOP-B) Lat,Lon (METOP-B) SZA (METOP-B ) Date (TERRA) Time (TERRA) Lat,Lon (TERRA) SZA (TERRA ) Distance(km) Time Diff (sec)
1 03/03/2018 23:58:15 81.33,-131.81 90.33 03/03/2018 23:59:11 81.34,-131.68 90.37 2.31 56
2 03/04/2018 00:48:54 -81.34, 36.10 89.63 03/04/2018 00:48:38 -81.34, 35.95 89.65 2.53 16
3 03/06/2018 19:32:37 81.33, -65.52 89.25 03/06/2018 19:33:27 81.33, -65.35 89.29 2.92 50
4 03/06/2018 20:23:16 -81.33, 102.40 90.70 03/06/2018 20:22:54 -81.33, 102.30 90.73 1.69 22
5 03/09/2018 15:06:58 81.33, 0.75 88.16 03/09/2018 15:07:42 81.32, 0.89 88.19 2.50 44
6 03/09/2018 15:57:36 -81.34, 169.07 91.75 03/09/2018 15:57:08 -81.34, 168.93 91.77 2.35 28
7 03/12/2018 10:41:19 81.33, 67.39 87.11 03/12/2018 10:41:57 81.33, 67.43 87.12 0.66 38
8 03/12/2018 11:31:59 -81.33,-125.06 92.89 03/12/2018 11:31:24 -81.33,-124.90 92.89 2.61 35
9 03/15/2018 06:15:40 81.33, 134.02 86.05 03/15/2018 06:16:12 81.33, 133.87 86.04 2.59 32




NCC Satellite Simultaneous Nadir Overpasses (SNOs) Prediction Service
